Home > Weather > Vieux Fort > Past weeks

Flag for Saint Lucia Past Weather in Vieux Fort, Saint Lucia — Yesterday and Last 2 Weeks

Now
79 °F

Passing clouds.


Feels Like: 83 °F
Forecast: 81 / 87 °F
Wind: No wind

Location: Hewanorra International Airport

Current Time: Jul 31, 2016 at 3:31:07 AM

Latest Report: Jul 31, 2016 at 2:00 AM


Visibility: N/A

Pressure: 29.86 "Hg

Humidity: 94%

Dew Point: 77 °F

Location of Vieux FortLocation

Past Weather in Vieux Fort — Graph

°F

Vieux Fort Temperature Yesterday

Maximum temperature yesterday: 88 °F (at 2:00 PM)
Minimum temperature yesterday: 79 °F (at 6:00 AM)
Average temperature yesterday: 83 °F

High & Low Weather Summary for the Past Weeks

 TemperatureHumidityPressure
High90 °F (Jul 24, 1:00 PM)100% (Jul 19, 7:00 AM)30.04 "Hg (Jul 19, 7:00 AM)
Low77 °F (Jul 19, 2:00 AM)62% (Jul 16, 1:00 PM)29.83 "Hg (Jul 30, 6:00 PM)
Average83 °F78%29.96 "Hg
* Reported Jul 16 4:00 AM — Jul 31 2:00 AM, Vieux Fort, Weather by CustomWeather, © 2016

Note: Actual official high and low records may vary slightly from our data, if they occured in-between our weather recording intervals... More about our weather records

Advertising

Vieux Fort Weather History for the Previous 24 Hours

Scroll right to see more
 ConditionsComfort  
Time TempWeatherWind HumidityBarometerVisibility
2:00 AM
Sun, Jul 31
79 °FPassing clouds.No wind94%29.86 "HgN/A
1:00 AM79 °FPassing clouds.No wind94%29.86 "HgN/A
12:00 AM79 °FPassing clouds.6 mph94%29.89 "HgN/A
11:00 PM
Sat, Jul 30
81 °FPassing clouds.6 mph89%29.89 "HgN/A
10:00 PM81 °FPassing clouds.6 mph89%29.89 "HgN/A
9:00 PM81 °FPassing clouds.7 mph89%29.89 "HgN/A
8:00 PM79 °FPassing clouds.6 mph94%29.89 "HgN/A
7:00 PM79 °FPassing clouds.6 mph89%29.86 "HgN/A
6:00 PM81 °FPassing clouds.8 mph89%29.83 "HgN/A
5:00 PM81 °FSprinkles. Scattered clouds.12 mph89%29.86 "HgN/A
4:00 PM86 °FScattered clouds.14 mph75%29.86 "HgN/A
3:00 PM88 °FBroken clouds.12 mph70%29.86 "HgN/A
2:00 PM88 °FScattered clouds.12 mph75%29.86 "HgN/A
1:00 PM86 °FScattered clouds.16 mph79%29.89 "HgN/A
12:00 PM86 °FPartly sunny.16 mph70%29.89 "HgN/A
11:00 AM86 °FBroken clouds.12 mph75%29.92 "HgN/A
10:00 AM86 °FBroken clouds.14 mph79%29.92 "HgN/A
9:00 AM81 °FBroken clouds.12 mph89%29.92 "HgN/A
8:00 AM82 °FScattered clouds.10 mph89%29.89 "HgN/A
7:00 AM81 °FScattered showers. Passing clouds.9 mph89%29.89 "HgN/A
6:00 AM79 °FScattered showers. Scattered clouds.9 mph94%29.89 "HgN/A
5:00 AM82 °FPassing clouds.14 mph79%29.89 "HgN/A
4:00 AM82 °FPassing clouds.12 mph79%29.86 "HgN/A
3:00 AM81 °FPassing clouds.14 mph84%29.89 "HgN/A
Weather by CustomWeather, © 2016

See weather overviewHow to use our weather pages